Location: Unspecified
(44.0704°N, 88.6889°W)
Time: 14:47:20
(UTC+02:00)

Altair - Pass Details

Date: 18 June 2019
Orbit: 1501 x 1683 km, 47.2° (Epoch: 16 August)

Event Time Altitude Azimuth Distance (km) Brightness Sun altitude
Rises 08:33:08 0° 282° (WNW) 4,821 10.1 -22.0°
Reaches altitude 10° 08:36:14 10° 284° (WNW) 3,858 9.6 -21.9°
Maximum altitude 08:46:12 79° 11° (NNE) 1,694 7.7 -21.5°
Drops below altitude 10° 08:56:24 10° 99° (E) 3,943 9.7 -21.1°
Sets 08:59:36 0° 101° (E) 4,932 10.2 -21.0°
